Weather in Sosnovyy

Russia / Tula Oblast     54°49′28″N   37°26′38″E
temp.,
°C
wind,
m/s
gust,
m/s
humid.,
%
clouds,
%
prec.,
mm/h
press.,
hPa
HPBL,
m
5 march, fri
fri500:00−4wnw2397100 0.8 1002124
03:00−6nw3697100 0.9 1004128
06:00−9nw239783 0.1 100626
09:00−8wnw359550 0.1 1008185
12:00−4wnw468552 0.0 1009742
15:00−3wnw467871 0.1 10111090
18:00−6w348675 0.1 101236
21:00−9wnw238737 0.1 101421
6 march, sat
sat600:00−10wsw22870 0.0 101521
03:00−11sw11870 0.0 101621
06:00−11w008990 0.0 101621
09:00−8nne129595 0.8 1017145
12:00−5nnw3582100 0.6 1017675
15:00−4nw347699 0.8 1016996
18:00−7w3487100 0.3 101667
21:00−11w348967 0.3 101758
7 march, sun
sun700:00−12sw47910 0.0 1015107
03:00−10sw613890 0.0 1012287
06:00−8sw8178386 0.0 1008601
09:00−6sw10188093 0.0 1003932
12:00−4sw111892100 0.9 9981219
15:00−2wnw101591100 3.1 9961269
18:00−7wnw6157167 0.4 999637
21:00−8wsw6148049 0.4 1001460
8 march, mon
mon800:00−8sw7168350 0.0 998563
03:00−6wsw9169175 0.1 996924
06:00−7wnw71283100 1.1 996877
09:00−10wnw91491100 1.3 9991019
12:00−8wnw81274100 0.3 10021206
15:00−7wnw8127796 0.3 10051350
18:00−8wnw51191100 0.1 1007577
21:00−11w489496 0.2 1010172
9 march, tue
tue900:00−13wnw339684 0.1 101130
03:00−14nw239776 0.1 101237
06:00−15nnw239896 0.1 101475
09:00−14n479398 0.1 1016439
12:00−13nnw4686100 0.0 1017638
15:00−11nnw4680100 0.1 1018883
18:00−14nnw3687100 0.0 1020114
21:00−17nw339496 0.0 102229